This demonstration page uses our WeatherBlox Daily Observations layout. Learn more.

Left ArrowRight Arrow

39.01783, -85.05884

Hourly Observations for August 7, 2017

Temp ( °F °C ) Dew Point ( °F °C ) Humidity (%) Winds ( mph kmh ) Pressure ( in mb ) Visibility ( mi km ) Precip ( " mm )
12:52 am 00:52 Cloudy with Light Rain 65 18.3 65 18.3 100 100 E 6 9 30.01 1016 8 13 0.03 0.76
1:22 am 01:22 Cloudy with Light Rain 64 17.8 64 17.8 100 100 E 5 7 30.03 1017 6 10 0.04 1.02
1:52 am 01:52 Cloudy with Light Rain 64 17.8 64 17.8 100 100 ESE 6 9 29.99 1016 7 11 0.07 1.78
2:52 am 02:52 Cloudy with Light Rain 65 18.3 65 18.3 100 100 ESE 8 13 29.96 1015 9 14 0.07 1.78
3:52 am 03:52 Cloudy 65 18.3 65 18.3 100 100 SSE 8 13 29.95 1014 10 16 0.01 0.25
4:52 am 04:52 Cloudy with Light Rain 65 18.3 65 18.3 100 100 E 5 7 29.94 1014 5 8 0.01 0.25
5:02 am 05:02 Cloudy with Rain 65 18.3 65 18.3 100 100 E 5 7 29.94 1014 3 4 0.05 1.27
5:18 am 05:18 Cloudy with Light Rain 65 18.3 65 18.3 100 100 E 5 7 29.94 1014 8 13 0.05 1.27
5:36 am 05:36 Cloudy with Rain 65 18.3 65 18.3 100 100 E 3 6 29.94 1014 3 4 0.07 1.78
5:43 am 05:43 Cloudy with Rain 65 18.3 65 18.3 100 100 E 5 7 29.94 1014 3 5 0.08 2.03
5:52 am 05:52 Cloudy with Light Rain 65 18.3 65 18.3 100 100 E 5 7 29.94 1014 3 5 0.09 2.29
6:52 am 06:52 Cloudy 65 18.3 65 18.3 100 100 ENE 6 9 29.94 1014 7 11 0.03 0.76
6:56 am 06:56 Cloudy with Mist and Fog 65 18.3 65 18.3 100 100 ENE 6 9 29.94 1014 3 5 0.00 0.00
7:41 am 07:41 Cloudy with Mist and Fog 66 18.9 66 18.9 100 100 NE 6 9 29.94 1014 3 4 0.00 0.00
7:52 am 07:52 Cloudy with Drizzle 66 18.9 66 18.9 100 100 NNE 6 9 29.94 1014 3 4 0.00 0.03
8:37 am 08:37 Cloudy with Light Rain 66 18.9 66 18.9 100 100 N 6 9 29.94 1014 2 3 0.00 0.03
8:52 am 08:52 Cloudy with Light Rain 66 18.9 66 18.9 100 100 N 7 11 29.96 1015 2 3 0.01 0.25
9:32 am 09:32 Cloudy with Light Rain 66 18.9 66 18.9 100 100 N 7 11 29.97 1015 1 2 0.04 1.02
9:52 am 09:52 Cloudy with Light Rain 66 18.9 66 18.9 100 100 N 7 11 29.97 1015 2 2 0.06 1.52
10:25 am 10:25 Cloudy with Light Rain 66 18.9 66 18.9 100 100 NNE 10 17 29.94 1014 3 4 0.05 1.27
10:52 am 10:52 Cloudy with Light Rain 67 19.4 67 19.4 100 100 NNE 9 15 29.96 1015 3 4 0.06 1.52
11:25 am 11:25 Cloudy with Mist and Fog 68 20 68 20 100 100 NE 8 13 29.97 1015 4 6 0.00 0.03
11:52 am 11:52 Cloudy with Mist and Fog 69 20.6 68 20 96 96 NE 12 19 29.96 1015 4 6 0.00 0.03
12:11 pm 12:11 Cloudy 69 20.6 68 20 96 96 ENE 10 17 29.97 1015 10 16 0.00 0.00
12:52 pm 12:52 Cloudy 71 21.7 67 19.4 87 87 NE 10 17 29.96 1015 10 16 0.00 0.00
1:43 pm 13:43 Cloudy 70 21.1 67 19.4 90 90 NE 7 11 29.97 1015 10 16 0.00 0.00
1:52 pm 13:52 Cloudy 70 21.1 67 19.4 90 90 NE 10 17 29.98 1015 10 16 0.00 0.00
2:52 pm 14:52 Cloudy 71 21.7 67 19.4 87 87 NNE 8 13 29.98 1015 10 16 0.00 0.00
3:01 pm 15:01 Cloudy 72 22.2 67 19.4 84 84 NE 8 13 29.97 1015 10 16 0.00 0.00
3:52 pm 15:52 Cloudy 72 22.2 67 19.4 84 84 NE 5 7 29.96 1015 10 16 0.00 0.00
4:39 pm 16:39 Cloudy 73 22.8 66 18.9 79 79 NNW 6 9 29.97 1015 10 16 0.00 0.00
4:52 pm 16:52 Cloudy 73 22.8 65 18.3 76 76 NNE 10 17 29.96 1015 10 16 0.00 0.00
5:52 pm 17:52 Mostly Cloudy 75 23.9 65 18.3 71 71 VRB 5 7 29.96 1015 10 16 0.00 0.00
6:52 pm 18:52 Partly Cloudy 75 23.9 61 16.1 62 62 N 7 11 29.97 1015 10 16 0.00 0.00
7:52 pm 19:52 Mostly Cloudy 73 22.8 62 16.7 69 69 NNW 5 7 29.97 1015 10 16 0.00 0.00
8:52 pm 20:52 Mostly Cloudy 71 21.7 64 17.8 79 79 NW 3 6 29.98 1015 10 16 0.00 0.00
9:52 pm 21:52 Mostly Cloudy 68 20 64 17.8 87 87 Calm 30.01 1016 10 16 0.00 0.00
10:52 pm 22:52 Mostly Cloudy 68 20 65 18.3 90 90 NNW 7 11 30.03 1017 10 16 0.00 0.00
11:52 pm 23:52 Mostly Cloudy 68 20 63 17.2 84 84 N 7 11 30.03 1017 10 16 0.00 0.00

Powered by AerisWeather